Regional Weather Roundup
Issued by NWS

Home | Current Version | Previous Version | Text Only | Print | Product List | Glossary Off
Versions: 1 2 3 4 5 6 7 8 9 10 11 12 13 14 15 16 17 18 19 20 21 22 23 24 25 26 27 28 29 30 31 32 33 34 35 36 37 38 39 40 41 42 43 44 45 46 47 48 49 50

000
ASUS45 KSLC 262310
RWRUT

UTAH REGIONAL WEATHER ROUNDUP
NATIONAL WEATHER SERVICE SALT LAKE CITY UT
500 PM MDT THU MAR 26 2015

UTZ001>011-023>025-270000-

NORTHERN UTAH

CITY           SKY/WX    TMP DP  RH WIND       PRES   REMARKS
BRIGHAM CITY   SUNNY     58  26  29 S6        30.34F
HILL AFB       SUNNY     57  25  28 W3        30.35S
LOGAN          SUNNY     59  29  31 E6        30.33F
OGDEN          SUNNY     57  25  29 NW5       30.34F
PROVO AIRPORT  MOSUNNY   57  25  28 CALM      30.34F
SALT LAKE CITY PTSUNNY   59  25  27 VRB3      30.34F
VERNAL         SUNNY     60  18  19 E6        30.22F
WENDOVER       SUNNY     61  27  27 SE6       30.33F
HEBER CITY     SUNNY     61  27  27 SW10      30.30F
WEST JORDAN    SUNNY     57  30  35 NW6       30.35F

$$

UTZ012>022-026-027-270000-

SOUTHERN/CENTRAL UTAH

CITY           SKY/WX    TMP DP  RH WIND       PRES   REMARKS
BLANDING       SUNNY     63  17  17 SW6       30.32F
BRYCE CANYON   MOSUNNY   59  24  26 NW9       30.35S
CEDAR CITY     SUNNY     64  23  21 NW6       30.29F
DELTA          SUNNY     61  20  20 CALM      30.32F
HANKSVILLE     SUNNY     68  19  15 W5        30.25F
MILFORD        SUNNY     63  24  22 NE14      30.31F
MOAB/CYNLANDS  SUNNY     64  11  12 VRB3      30.22F
PRICE          SUNNY     66  21  18 S10       30.24F
ST GEORGE      CLEAR     75  25  15 S5        30.20F

$$

REGIONAL REPORTS     COLORADO/ARIZONA

CITY           SKY/WX    TMP DP  RH WIND       PRES   REMARKS
CRAIG, CO      MOSUNNY   56  25  30 SW6       30.24F
GRAND JUNCTION SUNNY     61  19  19 NW6       30.23F
RIFLE          SUNNY     61  22  22 W10       30.21F
MONTROSE       SUNNY     60  18  19 NW10      30.27F
CORTEZ         SUNNY     66  16  14 NW15G25   30.22F
PAGE, AZ       SUNNY     67  16  14 VRB3      30.25F
GRAND CANYON   SUNNY     63  14  15 VRB5      30.32S
KINGMAN        SUNNY     78  19  11 N7        30.17F
FLAGSTAFF      MOSUNNY   61  11  14 NE8       30.32S

$$

REGIONAL REPORTS    NEVADA/IDAHO/WYOMING

CITY           SKY/WX    TMP DP  RH WIND       PRES   REMARKS
LAS VEGAS, NV  MOSUNNY   80  22  11 N6        30.11F
ELY            SUNNY     66  21  18 NE8       30.31F
ELKO           SUNNY     65  29  25 S5        30.30F
POCATELLO, ID  MOSUNNY   60  32  34 W15G22    30.32F
BURLEY         SUNNY     61  34  36 W12       30.30F
EVANSTON, WY   SUNNY     55  27  34 N12G20    30.34S
ROCK SPRINGS   SUNNY     56  25  30 W22G35    30.24S
KEMMERER       MOSUNNY   48  30  49 W18G25    30.34F

$$


USA.gov is the U.S. government's official web portal to all federal, state and local government web resources and services.